Location: DARK SKY Beskydy - Park tmavé oblohy, www.darkskybeskydy.cz
(49.4926°N, 18.5016°E)
Time: 09:48:25
(UTC+01:00)

Explorer 11/Cluster Stage 4 - All Passes

Search period start: 25 February 2024 00:00
Search period end: 06 March 2024 00:00
Orbit: 465 x 1224 km, 28.8° (Epoch: 24 February)

Date Brightness Start Highest point End Pass type
(mag) Time Alt. Az. Time Alt. Az. Time Alt. Az.
25 Feb - 02:14:22 10° SSW 02:17:24 13° S 02:20:18 10° SSE visible
25 Feb - 04:03:53 10° SSW 04:04:26 10° SSW 04:05:00 10° S visible
26 Feb - 01:57:10 10° SSW 02:00:39 14° S 02:03:58 10° SSE night (unlit)
26 Feb - 03:46:25 10° SSW 03:47:43 11° SSW 03:48:59 10° S visible
26 Feb - 23:54:56 10° S 23:56:38 11° SSE 23:58:20 10° SSE night (unlit)
27 Feb - 01:40:03 10° SSW 01:43:52 14° S 01:47:30 10° SSE night (unlit)
27 Feb - 03:29:17 10° SSW 03:30:58 11° SSW 03:32:36 10° S visible
27 Feb - 23:37:25 10° S 23:39:48 11° SSE 23:42:11 10° SSE night (unlit)
28 Feb - 01:23:01 10° SSW 01:27:02 15° S 01:30:57 10° SSE night (unlit)
28 Feb - 03:12:18 10° SSW 03:14:11 11° SSW 03:16:00 10° S visible
28 Feb - 23:20:09 10° S 23:22:57 12° SSE 23:25:45 10° SE night (unlit)
29 Feb - 01:06:01 10° SSW 01:10:12 15° S 01:14:17 10° SSE night (unlit)
29 Feb - 02:55:25 10° SSW 02:57:22 11° SSW 02:59:16 10° S visible
29 Feb - 23:03:02 10° S 23:06:05 13° SSE 23:09:10 10° SE night (unlit)
01 Mar - 00:49:05 10° SW 00:53:20 15° S 00:57:32 10° SSE night (unlit)
01 Mar - 02:38:38 10° SSW 02:40:31 11° SSW 02:42:22 10° S night (unlit)
01 Mar - 22:46:01 10° S 22:49:12 13° SSE 22:52:27 10° SE night (unlit)
02 Mar - 00:32:12 10° SW 00:36:27 15° S 00:40:42 10° SSE night (unlit)
02 Mar - 02:21:59 10° SSW 02:23:38 11° SSW 02:25:16 10° S night (unlit)
02 Mar - 22:29:06 10° SSW 22:32:18 13° SSE 22:35:37 10° SE night (unlit)
03 Mar - 00:15:23 10° SW 00:19:34 15° S 00:23:46 10° SSE night (unlit)
03 Mar - 02:05:36 10° SSW 02:06:45 10° SSW 02:07:54 10° S night (unlit)
03 Mar - 22:12:16 10° SSW 22:15:25 13° SSE 22:18:42 10° SE night (unlit)
03 Mar - 23:58:37 10° SW 00:02:40 15° S 00:06:45 10° SSE night (unlit)
04 Mar - 21:55:30 10° SSW 21:58:32 13° SSE 22:01:42 10° SE night (unlit)
04 Mar - 23:41:55 10° SW 23:45:44 14° S 23:49:40 10° SSE night (unlit)
05 Mar - 21:38:49 10° SSW 21:41:39 13° S 21:44:37 10° SE night (unlit)
05 Mar - 23:25:18 10° SSW 23:28:50 14° S 23:32:28 10° SSE night (unlit)
